Skip Page Navigation
NASA JPL Caltech
NASA Logo - Jet Propulsion Laboratory + View the NASA Portal
+ Center for Near-Earth Object Studies
JPL Home Earth Solar System Stars & Galaxies Technology
JPL Solar System Dynamics
BODIES ORBITS EPHEMERIDES TOOLS PHYSICAL DATA DISCOVERY FAQ SITE MAP
IMPORTANT: The SSD Announcement email list is now available. Major changes are coming in the near future, including possible hostname and/or URL changes. To be notified of such changes, subscribe to this email list.

Please visit this page for more details.


JPL Small-Body Database Browser
Search: [ help ]  
136734 (1995 VF6)
Classification: Main-belt Asteroid          SPK-ID: 2136734
Ephemeris | Orbit Diagram | Orbital Elements | Mission Design | Physical Parameters | Discovery Circumstances ]

[ show orbit diagram ]
Orbital Elements at Epoch 2458600.5 (2019-Apr-27.0) TDB
Reference: JPL 11 (heliocentric ecliptic J2000)
 Element Value Uncertainty (1-sigma)   Units 
e .06308501666533151 5.2364e-08  
a 2.364258857832899 1.5429e-08 au
q 2.215109548385353 1.2987e-07 au
i 6.617261938932666 6.1948e-06 deg
node 55.25222415499499 4.8289e-05 deg
peri 268.3071964402093 7.6197e-05 deg
M 244.3377454293943 6.2885e-05 deg
tp 2459027.109101778499
(2020-Jun-26.60910178)
0.00023359 TDB
period 1327.825375792822
3.64
1.2998e-05
3.559e-08
d
yr
n .2711199880368683 2.6539e-09 deg/d
Q 2.513408167280445 1.6402e-08 au
  Orbit Determination Parameters
   # obs. used (total)      276  
   data-arc span      8575 days (23.48 yr)  
   first obs. used      1995-11-14  
   last obs. used      2019-05-07  
   planetary ephem.      DE431  
   SB-pert. ephem.      SB431-N16  
   condition code      0  
   norm. resid. RMS      .57472  
   source      ORB  
   producer      Otto Matic  
   solution date      2019-May-30 07:13:14  

Additional Information
 Earth MOID = 1.21394 au 
 Jupiter MOID = 2.65433 au 
 T_jup = 3.537 
[ show covariance matrix ]

Ephemeris | Orbit Diagram | Orbital Elements | Mission Design | Physical Parameters | Discovery Circumstances ]

Physical Parameter Table
Parameter Symbol Value Units Sigma Reference Notes
absolute magnitude H 16.8   n/a MPO432829  
rotation period rot_per 21.966 h n/a LCDB (Rev. 2019-January); Warner et al., 2009 Result based on less than full coverage, so that the period may be wrong by 30 percent or so.
Published Reference List:
[Waszczak, A.; Chang, C.-K.; Ofeck, E.O.; Laher, F.; et al. (2015) Astron. J. 150, A75.]

136734 (1995 VF6)          Discovered 1995-Nov-14 by Spacewatch at Kitt Peak
Reference: 20061205/Numbers.arcLast Updated: 2006-12-13

Alternate Designations
 1995 VF6 = 2002 TM338 
Ephemeris | Orbit Diagram | Orbital Elements | Mission Design | Physical Parameters | Discovery Circumstances ]
ABOUT SSD CREDITS/AWARDS PRIVACY/COPYRIGHT GLOSSARY LINKS
FirstGov
(server date/time)  
NASA Home Page
Site Manager:   Ryan S. Park
Webmaster  Alan B. Chamberlin